Regional Weather Roundup
Issued by NWS Little Rock, AR

Home | Current Version | Previous Version | Graphics & Text | Print | Product List | Glossary On
Versions: 1 2 3 4 5 6 7 8 9 10 11 12 13 14 15 16 17 18 19 20 21 22 23 24 25 26 27 28 29 30 31 32 33 34 35 36 37 38 39 40 41 42 43 44 45 46 47 48 49 50
000
ASUS44 KLZK 200305
RWRLZK

WEATHER ROUNDUP FOR ARKANSAS
NATIONAL WEATHER SERVICE LITTLE ROCK AR
1000 PM CDT FRI SEP 19 2014

NOTE: "FAIR" INDICATES FEW OR NO CLOUDS BELOW 12,000 FEET WITH NO
SIGNIFICANT WEATHER AND/OR OBSTRUCTIONS TO VISIBILITY.

ARZ001-003-010-029-200400-
NORTHWEST ARKANSAS

CITY           SKY/WX    TMP DP  RH WIND       PRES   REMARKS
FAYETTEVILLE   CLEAR     67  66  97 CALM      30.03R
FORT SMITH     CLEAR     74  69  85 E3        29.99R
HARRISON       CLEAR     68  67  96 S3        30.04R
BENTONVILLE    CLEAR     70  66  88 S3        30.03R
ROGERS         CLEAR     70  66  87 SE3       30.04R
SILOAM SPGS    CLEAR     70  63  78 SE3       30.03R
HIGHFILL       CLEAR     69  67  93 CALM      30.02R
$$

ARZ004-005-016-200400-
NORTH CENTRAL ARKANSAS

CITY           SKY/WX    TMP DP  RH WIND       PRES   REMARKS
BATESVILLE     CLEAR     70  64  83 CALM      30.02S
FLIPPIN        CLEAR     66  61  82 CALM      30.03R
MTN HOME       CLEAR     70  65  84 SE3       30.02R
$$

ARZ040-041-200400-
WEST CENTRAL ARKANSAS

CITY           SKY/WX    TMP DP  RH WIND       PRES   REMARKS
MENA           CLEAR     72  70  94 CALM      30.03R
MOUNT IDA      CLEAR     71  69  93 CALM      30.01R FOG
$$

ARZ009-017-025-026-028-200400-
NORTHEAST ARKANSAS

CITY           SKY/WX    TMP DP  RH WIND       PRES   REMARKS
JONESBORO      CLEAR     69  66  90 NE3       30.02R
NEWPORT        CLEAR     71  67  87 NE3       30.02S
WALNUT RIDGE   CLEAR     68  63  83 E5        30.01F
BLYTHEVILLE    CLEAR     70  68  93 SE5       30.03R
$$

ARZ022-023-033-042-044-200400-
CENTRAL ARKANSAS

CITY           SKY/WX    TMP DP  RH WIND       PRES   REMARKS
LITTLE ROCK    CLEAR     76  67  73 CALM      30.01R
N LITTLE ROCK  CLEAR     76  70  82 SE5       30.01R
JACKSONVILLE   CLEAR     71  68  92 CALM      30.01R
SEARCY         CLEAR     71  68  90 CALM      30.02R
HOT SPRINGS    CLEAR     73  69  87 CALM      30.02R
RUSSELLVILLE   CLEAR     70  68  93 CALM      30.01R
CLINTON        FAIR      70  68  94 CALM      30.03R FOG
$$

ARZ036-200400-
EAST ARKANSAS

CITY           SKY/WX    TMP DP  RH WIND       PRES   REMARKS
WEST MEMPHIS   CLEAR     70  70 100 CALM      30.01R
$$

ARZ050-053-066-070-073-200400-
SOUTHWEST ARKANSAS

CITY           SKY/WX    TMP DP  RH WIND       PRES   REMARKS
ARKADELPHIA    FAIR      72  72 100 CALM      30.01R FOG
CAMDEN         CLEAR     72  68  88 CALM      29.99S FOG
TEXARKANA      CLEAR     73  72  96 E5        29.99R
EL DORADO      CLEAR     72  70  93 CALM      30.00R
DE QUEEN       FOG       71  70  96 CALM      29.98R VSB 1/4
$$

ARZ056-057-069-200400-
SOUTHEAST ARKANSAS

CITY           SKY/WX    TMP DP  RH WIND       PRES   REMARKS
PINE BLUFF     CLEAR     73  67  81 CALM      30.01R
STUTTGART      CLEAR     75  66  73 E7        30.02R
MONTICELLO     CLEAR     75  70  84 CALM      29.99R

$$




USA.gov is the U.S. government's official web portal to all federal, state and local government web resources and services.